FENGYUN 1C DEB, 36695

Orbit data source: Space-Track

FENGYUN 1C DEB, 36695 is space debris in SSO originally from a launch on Mon, 10 May 1999 UTC launched from the Taiyaun Space Center, China (TSC). Fengyun 1C debris stems from the Chinese weather satellite Fengyun-1C, which was intentionally destroyed by a Chinese anti-satellite missile in 2007. This event dramatically increased the amount of space debris, with thousands of trackable fragments posing hazards to satellites and human spaceflight. The Fengyun 1C debris cloud has become a focal point in discussions about space sustainability and the need for international regulations to prevent the creation of new debris.

Loading next visibility...
Identifier
36695, 1999-025DZR
Orbit
SSO
Country
Flag of CNCN / PRC
Related business
Manufacturer
Unknown
Mission
Spacecraft
Bus & Motor
Unknown
Mass
Unknown
Launch date (UTC)
1999-05-10 (27 years ago)
Launch vehicle
Unknown
Launch site
Taiyaun Space Center, China (TSC)
Object type
Payload
Rocket body
Debris
Shape & HBR
Unknown shape, 0.1 m
Radar Cross Section
Small (<0.1 m²)

Expand to show TLE details & history
Last TLE update: 2 days ago

TLE from 2 days ago
0 FENGYUN 1C DEB
1 36695U 99025DZR 26164.67338053  .00000789  00000-0  16633-3 0  9994
2 36695  98.2401 145.3510 0253483 294.4341  63.0596 14.44307763922085
Epoch: 2026-06-13T16:09Z
TLE epoch observation values (Epoch: 2026-06-13T16:09:40.077Z)
Latitude
-0.0001°
Longitude
0.94893°
Altitude
669.153 km
Speed
7.564 km/s
True Right ascension
09h 41m 24s
True Declination
0° 00' 00"
Sunlit
Object was in daylight at epoch
Visualization orbit readout
Latitude
Unknown
Longitude
Unknown
Altitude
Unknown
Speed
Unknown
Apparent Right ascension
Unknown
Apparent Declination
Unknown
Sunlit
N/A
Visualization observer readout
Local Sidereal Time
05:08:24
Azimuth
Unknown
Elevation
Unknown
Doppler factor
Unknown
Orbital elements
Apogee altitude
921.87 km
Perigee altitude
560.934 km
Semi-major axis
7,119.539 km
Eccentricity
0.02535
Inclination
98.2401°
RAAN
145.351°
Arg. of periapsis
294.4341°
True anomaly
65.68585°
Mean anomaly
63.0596°
Eccentric anomaly
64.36904°
Mean motion
3.61298 °/min
Orbital period
99.64 mins
BSTAR
0.00016633
Loading maneuver chart data...
Computing Atmospheric mass density...
Loading historical data...
Loading historical data...
Loading historical data...
Loading historical data...
Loading historical data...
Loading historical data...
Loading historical data...

Documentation

Showing up to 5 results
|